Time,TemperatureF,DewpointF,PressureIn,WindDirection,WindDirectionDegrees,WindSpeedMPH,WindSpeedGustMPH,Humidity,HourlyPrecipIn,Conditions,Clouds,dailyrainin,SoftwareType,DateUTC
2013-02-19 00:00:00,46.1,39.3,29.71,West,280,9.0,16.0,77,0.00,,,0.83,Wunderground v.1.15,2013-02-19 06:00:00,
2013-02-19 00:10:00,45.9,39.1,29.72,WNW,290,8.0,8.0,77,0.00,,,0.83,Wunderground v.1.15,2013-02-19 06:10:00,
2013-02-19 00:15:00,45.6,39.1,29.72,WNW,299,7.0,16.0,78,0.00,,,0.83,Wunderground v.1.15,2013-02-19 06:15:00,
2013-02-19 00:20:00,45.4,38.9,29.72,WNW,286,7.0,16.0,78,0.00,,,0.83,Wunderground v.1.15,2013-02-19 06:20:00,
2013-02-19 00:25:00,45.3,38.8,29.73,NW,306,7.0,16.0,78,0.00,,,0.83,Wunderground v.1.15,2013-02-19 06:25:00,
2013-02-19 00:35:00,45.0,38.9,29.73,NW,305,5.0,10.0,79,0.00,,,0.83,Wunderground v.1.15,2013-02-19 06:35:00,
2013-02-19 00:45:00,44.9,38.8,29.74,NW,322,5.0,8.0,79,0.00,,,0.83,Wunderground v.1.15,2013-02-19 06:45:00,
2013-02-19 00:50:00,44.8,38.7,29.74,NNW,344,5.0,16.0,79,0.00,,,0.83,Wunderground v.1.15,2013-02-19 06:50:00,
2013-02-19 00:55:00,44.7,38.6,29.74,NNW,348,5.0,16.0,79,0.00,,,0.83,Wunderground v.1.15,2013-02-19 06:55:00,
2013-02-19 01:00:00,44.7,38.6,29.74,NW,316,6.0,6.0,79,0.00,,,0.83,Wunderground v.1.15,2013-02-19 07:00:00,
2013-02-19 01:05:00,44.5,38.4,29.74,North,355,5.0,16.0,79,0.00,,,0.83,Wunderground v.1.15,2013-02-19 07:05:00,
2013-02-19 01:10:00,44.4,38.3,29.74,North,360,5.0,5.0,79,0.00,,,0.83,Wunderground v.1.15,2013-02-19 07:10:00,
2013-02-19 01:20:00,44.3,38.2,29.74,NNW,337,5.0,16.0,79,0.00,,,0.83,Wunderground v.1.15,2013-02-19 07:20:00,
2013-02-19 01:25:00,44.2,38.1,29.75,NNW,334,5.0,16.0,79,0.00,,,0.83,Wunderground v.1.15,2013-02-19 07:25:00,
2013-02-19 01:35:00,43.9,37.8,29.75,NW,316,3.0,5.0,79,0.00,,,0.83,Wunderground v.1.15,2013-02-19 07:35:00,
2013-02-19 01:40:00,43.8,38.0,29.76,NNW,348,2.0,2.0,80,0.00,,,0.83,Wunderground v.1.15,2013-02-19 07:40:00,
2013-02-19 01:45:00,43.7,37.9,29.76,North,355,1.0,16.0,80,0.00,,,0.83,Wunderground v.1.15,2013-02-19 07:45:00,
2013-02-19 01:55:00,43.4,37.6,29.76,NNW,336,1.0,16.0,80,0.00,,,0.83,Wunderground v.1.15,2013-02-19 07:55:00,
2013-02-19 02:00:00,43.3,37.9,29.76,NNW,345,1.0,16.0,81,0.00,,,0.83,Wunderground v.1.15,2013-02-19 08:00:00,
2013-02-19 02:05:00,43.2,37.8,29.76,NW,311,2.0,16.0,81,0.00,,,0.83,Wunderground v.1.15,2013-02-19 08:05:00,
2013-02-19 02:10:00,43.1,37.7,29.77,NW,310,1.0,1.0,81,0.00,,,0.83,Wunderground v.1.15,2013-02-19 08:10:00,
2013-02-19 02:15:00,43.1,38.0,29.77,NW,309,1.0,6.0,82,0.00,,,0.83,Wunderground v.1.15,2013-02-19 08:15:00,
2013-02-19 02:25:00,43.3,38.2,29.77,NW,309,1.0,16.0,82,0.00,,,0.83,Wunderground v.1.15,2013-02-19 08:25:00,
2013-02-19 02:30:00,43.3,38.2,29.77,NW,319,2.0,2.0,82,0.00,,,0.00,Wunderground v.1.15,2013-02-19 08:30:00,
2013-02-19 02:40:00,43.3,38.2,29.78,WNW,293,2.0,16.0,82,0.00,,,0.00,Wunderground v.1.15,2013-02-19 08:40:00,
2013-02-19 02:45:00,43.2,38.1,29.78,NNW,332,5.0,16.0,82,0.00,,,0.00,Wunderground v.1.15,2013-02-19 08:45:00,
2013-02-19 02:50:00,43.0,37.9,29.78,WNW,296,5.0,16.0,82,0.00,,,0.00,Wunderground v.1.15,2013-02-19 08:50:00,
2013-02-19 03:00:00,42.7,37.6,29.78,NNW,333,8.0,16.0,82,0.00,,,0.00,Wunderground v.1.15,2013-02-19 09:00:00,
2013-02-19 03:05:00,42.6,37.5,29.78,NNW,329,8.0,16.0,82,0.00,,,0.00,Wunderground v.1.15,2013-02-19 09:05:00,
2013-02-19 03:10:00,42.5,37.4,29.79,WNW,297,8.0,8.0,82,0.00,,,0.00,Wunderground v.1.15,2013-02-19 09:10:00,
2013-02-19 03:20:00,42.2,36.5,29.79,WNW,298,9.0,16.0,80,0.00,,,0.00,Wunderground v.1.15,2013-02-19 09:20:00,
2013-02-19 03:25:00,42.0,36.0,29.79,WNW,291,9.0,16.0,79,0.00,,,0.00,Wunderground v.1.15,2013-02-19 09:25:00,
2013-02-19 03:35:00,41.5,34.8,29.79,WNW,294,9.0,16.0,77,0.00,,,0.00,Wunderground v.1.15,2013-02-19 09:35:00,
2013-02-19 03:40:00,41.2,34.2,29.80,West,273,9.0,9.0,76,0.00,,,0.00,Wunderground v.1.15,2013-02-19 09:40:00,
2013-02-19 03:45:00,41.0,34.0,29.80,NW,326,8.0,16.0,76,0.00,,,0.00,Wunderground v.1.15,2013-02-19 09:45:00,
2013-02-19 03:50:00,40.8,33.8,29.80,NW,319,8.0,8.0,76,0.00,,,0.00,Wunderground v.1.15,2013-02-19 09:50:00,
2013-02-19 03:55:00,40.6,34.0,29.82,WNW,296,7.0,10.0,77,0.00,,,0.00,Wunderground v.1.15,2013-02-19 09:55:00,
2013-02-19 04:00:00,40.4,33.8,29.82,WNW,294,7.0,16.0,77,0.00,,,0.00,Wunderground v.1.15,2013-02-19 10:00:00,
2013-02-19 04:10:00,40.1,33.5,29.83,WNW,300,7.0,7.0,77,0.00,,,0.00,Wunderground v.1.15,2013-02-19 10:10:00,
2013-02-19 04:20:00,39.7,33.4,29.83,NNW,333,5.0,16.0,78,0.00,,,0.00,Wunderground v.1.15,2013-02-19 10:20:00,
2013-02-19 04:25:00,39.5,33.2,29.84,NNW,336,3.0,16.0,78,0.00,,,0.00,Wunderground v.1.15,2013-02-19 10:25:00,
2013-02-19 04:30:00,39.3,33.0,29.84,WNW,291,4.0,16.0,78,0.00,,,0.00,Wunderground v.1.15,2013-02-19 10:30:00,
2013-02-19 04:35:00,39.1,32.8,29.84,WNW,295,6.0,16.0,78,0.00,,,0.00,Wunderground v.1.15,2013-02-19 10:35:00,
2013-02-19 04:45:00,38.8,32.8,29.84,WNW,293,4.0,16.0,79,0.00,,,0.00,Wunderground v.1.15,2013-02-19 10:45:00,
2013-02-19 04:50:00,38.7,32.4,29.84,WNW,294,5.0,16.0,78,0.00,,,0.00,Wunderground v.1.15,2013-02-19 10:50:00,
2013-02-19 04:55:00,38.5,32.2,29.85,NW,317,6.0,16.0,78,0.00,,,0.00,Wunderground v.1.15,2013-02-19 10:55:00,
2013-02-19 05:05:00,38.2,31.9,29.85,NW,306,6.0,16.0,78,0.00,,,0.00,Wunderground v.1.15,2013-02-19 11:05:00,
2013-02-19 05:10:00,38.0,31.7,29.86,NW,313,6.0,6.0,78,0.00,,,0.00,Wunderground v.1.15,2013-02-19 11:10:00,
2013-02-19 05:20:00,37.8,31.6,29.86,NNW,343,8.0,8.0,78,0.00,,,0.00,Wunderground v.1.15,2013-02-19 11:20:00,
2013-02-19 05:25:00,37.6,31.4,29.87,WNW,291,6.0,16.0,78,0.00,,,0.00,Wunderground v.1.15,2013-02-19 11:25:00,
2013-02-19 05:30:00,37.5,31.3,29.87,WNW,296,6.0,16.0,78,0.00,,,0.00,Wunderground v.1.15,2013-02-19 11:30:00,
2013-02-19 05:35:00,37.3,31.1,29.87,WNW,302,6.0,16.0,78,0.00,,,0.00,Wunderground v.1.15,2013-02-19 11:35:00,
2013-02-19 05:40:00,37.2,31.0,29.88,NW,315,6.0,16.0,78,0.00,,,0.00,Wunderground v.1.15,2013-02-19 11:40:00,
2013-02-19 05:50:00,36.9,30.7,29.88,WNW,298,4.0,16.0,78,0.00,,,0.00,Wunderground v.1.15,2013-02-19 11:50:00,
2013-02-19 06:00:00,36.6,30.4,29.89,NW,310,5.0,16.0,78,0.00,,,0.00,Wunderground v.1.15,2013-02-19 12:00:00,
2013-02-19 06:05:00,36.5,30.3,29.89,NW,323,5.0,16.0,78,0.00,,,0.00,Wunderground v.1.15,2013-02-19 12:05:00,
2013-02-19 06:10:00,36.4,29.9,29.90,NW,304,5.0,16.0,77,0.00,,,0.00,Wunderground v.1.15,2013-02-19 12:10:00,
2013-02-19 06:15:00,36.3,29.8,29.90,West,281,5.0,16.0,77,0.00,,,0.00,Wunderground v.1.15,2013-02-19 12:15:00,
2013-02-19 06:25:00,36.2,29.0,29.90,NNW,331,7.0,10.0,75,0.00,,,0.00,Wunderground v.1.15,2013-02-19 12:25:00,
2013-02-19 06:30:00,36.1,28.9,29.90,NW,309,6.0,16.0,75,0.00,,,0.00,Wunderground v.1.15,2013-02-19 12:30:00,
2013-02-19 06:35:00,36.0,28.8,29.90,NW,322,5.0,16.0,75,0.00,,,0.00,Wunderground v.1.15,2013-02-19 12:35:00,
2013-02-19 06:40:00,35.9,28.7,29.91,NW,315,4.0,4.0,75,0.00,,,0.00,Wunderground v.1.15,2013-02-19 12:40:00,
2013-02-19 06:45:00,35.8,28.6,29.91,WNW,296,5.0,5.0,75,0.00,,,0.00,Wunderground v.1.15,2013-02-19 12:45:00,
2013-02-19 06:55:00,35.6,29.1,29.91,NW,306,3.0,6.0,77,0.00,,,0.00,Wunderground v.1.15,2013-02-19 12:55:00,
2013-02-19 07:05:00,35.7,29.2,29.91,NNW,336,5.0,16.0,77,0.00,,,0.00,Wunderground v.1.15,2013-02-19 13:05:00,
2013-02-19 07:10:00,35.8,29.0,29.92,North,350,5.0,5.0,76,0.00,,,0.00,Wunderground v.1.15,2013-02-19 13:10:00,
2013-02-19 07:15:00,36.0,28.8,29.92,NNW,334,6.0,6.0,75,0.00,,,0.00,Wunderground v.1.15,2013-02-19 13:15:00,
2013-02-19 07:20:00,36.1,28.6,29.92,NW,310,6.0,6.0,74,0.00,,,0.00,Wunderground v.1.15,2013-02-19 13:20:00,
2013-02-19 07:25:00,36.4,28.9,29.93,NW,304,5.0,10.0,74,0.00,,,0.00,Wunderground v.1.15,2013-02-19 13:25:00,
2013-02-19 07:35:00,36.5,28.3,29.93,WNW,298,7.0,16.0,72,0.00,,,0.00,Wunderground v.1.15,2013-02-19 13:35:00,
2013-02-19 07:40:00,36.6,28.4,29.94,NNW,338,5.0,5.0,72,0.00,,,0.00,Wunderground v.1.15,2013-02-19 13:40:00,
2013-02-19 07:50:00,37.0,28.5,29.94,NW,313,5.0,16.0,71,0.00,,,0.00,Wunderground v.1.15,2013-02-19 13:50:00,
2013-02-19 07:55:00,37.1,28.2,29.94,NNE,17,6.0,16.0,70,0.00,,,0.00,Wunderground v.1.15,2013-02-19 13:55:00,
2013-02-19 08:00:00,37.1,27.9,29.94,NW,306,7.0,16.0,69,0.00,,,0.00,Wunderground v.1.15,2013-02-19 14:00:00,
2013-02-19 08:10:00,37.3,27.7,29.95,NNW,333,8.0,8.0,68,0.00,,,0.00,Wunderground v.1.15,2013-02-19 14:10:00,
2013-02-19 08:15:00,37.5,27.5,29.95,NW,318,8.0,16.0,67,0.00,,,0.00,Wunderground v.1.15,2013-02-19 14:15:00,
2013-02-19 08:20:00,37.7,27.4,29.95,NW,319,8.0,16.0,66,0.00,,,0.00,Wunderground v.1.15,2013-02-19 14:20:00,
2013-02-19 08:25:00,37.7,27.4,29.95,NNW,343,9.0,16.0,66,0.00,,,0.00,Wunderground v.1.15,2013-02-19 14:25:00,
2013-02-19 08:30:00,38.2,27.5,29.95,NW,306,7.0,7.0,65,0.00,,,0.00,Wunderground v.1.15,2013-02-19 14:30:00,
2013-02-19 08:40:00,38.4,27.7,29.96,NNE,24,8.0,16.0,65,0.00,,,0.00,Wunderground v.1.15,2013-02-19 14:40:00,
2013-02-19 08:45:00,38.6,27.1,29.96,WNW,287,6.0,16.0,63,0.00,,,0.00,Wunderground v.1.15,2013-02-19 14:45:00,
2013-02-19 08:55:00,38.9,26.6,29.98,NW,323,9.0,16.0,61,0.00,,,0.00,Wunderground v.1.15,2013-02-19 14:55:00,
2013-02-19 09:00:00,39.4,27.8,29.98,NNW,342,7.0,16.0,63,0.00,,,0.00,Wunderground v.1.15,2013-02-19 15:00:00,
2013-02-19 09:05:00,39.7,27.7,29.98,WNW,302,6.0,16.0,62,0.00,,,0.00,Wunderground v.1.15,2013-02-19 15:05:00,
2013-02-19 09:15:00,40.0,26.8,29.98,NNW,342,8.0,16.0,59,0.00,,,0.00,Wunderground v.1.15,2013-02-19 15:15:00,
2013-02-19 09:20:00,40.3,27.1,29.98,WNW,303,7.0,7.0,59,0.00,,,0.00,Wunderground v.1.15,2013-02-19 15:20:00,
2013-02-19 09:25:00,40.2,26.6,29.98,North,9,8.0,8.0,58,0.00,,,0.00,Wunderground v.1.15,2013-02-19 15:25:00,
2013-02-19 09:30:00,40.3,26.7,29.98,WNW,298,8.0,8.0,58,0.00,,,0.00,Wunderground v.1.15,2013-02-19 15:30:00,
2013-02-19 09:35:00,40.6,27.0,29.98,WNW,298,8.0,9.0,58,0.00,,,0.00,Wunderground v.1.15,2013-02-19 15:35:00,
2013-02-19 09:40:00,40.9,26.8,29.99,NW,309,10.0,10.0,57,0.00,,,0.00,Wunderground v.1.15,2013-02-19 15:40:00,
2013-02-19 09:50:00,41.2,26.7,29.99,NW,306,8.0,8.0,56,0.00,,,0.00,Wunderground v.1.15,2013-02-19 15:50:00,
2013-02-19 10:00:00,42.0,27.4,29.99,WNW,292,7.0,7.0,56,0.00,,,0.00,Wunderground v.1.15,2013-02-19 16:00:00,
2013-02-19 10:05:00,42.2,27.6,29.99,West,272,7.0,16.0,56,0.00,,,0.00,Wunderground v.1.15,2013-02-19 16:05:00,
2013-02-19 10:10:00,42.6,28.4,30.00,NNE,30,7.0,7.0,57,0.00,,,0.00,Wunderground v.1.15,2013-02-19 16:10:00,
2013-02-19 10:15:00,42.7,28.1,30.00,North,355,6.0,16.0,56,0.00,,,0.00,Wunderground v.1.15,2013-02-19 16:15:00,
2013-02-19 10:25:00,43.0,27.5,29.99,NNW,342,7.0,16.0,54,0.00,,,0.00,Wunderground v.1.15,2013-02-19 16:25:00,
2013-02-19 10:30:00,43.1,28.0,29.99,West,276,7.0,16.0,55,0.00,,,0.00,Wunderground v.1.15,2013-02-19 16:30:00,
2013-02-19 10:35:00,43.1,28.0,29.99,West,261,8.0,16.0,55,0.00,,,0.00,Wunderground v.1.15,2013-02-19 16:35:00,
2013-02-19 10:40:00,43.6,28.0,30.00,WNW,283,8.0,8.0,54,0.00,,,0.00,Wunderground v.1.15,2013-02-19 16:40:00,
2013-02-19 10:45:00,43.9,28.3,30.00,West,261,7.0,9.0,54,0.00,,,0.00,Wunderground v.1.15,2013-02-19 16:45:00,
2013-02-19 10:55:00,44.1,28.0,30.00,West,275,9.0,16.0,53,0.00,,,0.00,Wunderground v.1.15,2013-02-19 16:55:00,
2013-02-19 11:05:00,44.2,27.2,30.00,West,262,10.0,16.0,51,0.00,,,0.00,Wunderground v.1.15,2013-02-19 17:05:00,
2013-02-19 11:10:00,44.3,27.3,30.00,WNW,303,10.0,10.0,51,0.00,,,0.00,Wunderground v.1.15,2013-02-19 17:10:00,
2013-02-19 11:15:00,44.7,27.2,30.00,WNW,288,11.0,11.0,50,0.00,,,0.00,Wunderground v.1.15,2013-02-19 17:15:00,
2013-02-19 11:20:00,45.0,27.5,30.00,WNW,290,9.0,9.0,50,0.00,,,0.00,Wunderground v.1.15,2013-02-19 17:20:00,
2013-02-19 11:30:00,45.6,28.0,29.99,West,273,9.0,16.0,50,0.00,,,0.00,Wunderground v.1.15,2013-02-19 17:30:00,
2013-02-19 11:35:00,45.6,28.0,29.99,WNW,289,9.0,16.0,50,0.00,,,0.00,Wunderground v.1.15,2013-02-19 17:35:00,
2013-02-19 11:40:00,45.7,28.1,30.00,WNW,282,9.0,16.0,50,0.00,,,0.00,Wunderground v.1.15,2013-02-19 17:40:00,
2013-02-19 11:45:00,46.0,28.4,30.00,WNW,290,9.0,16.0,50,0.00,,,0.00,Wunderground v.1.15,2013-02-19 17:45:00,
2013-02-19 11:55:00,46.6,28.4,30.00,West,271,8.0,11.0,49,0.00,,,0.00,Wunderground v.1.15,2013-02-19 17:55:00,
2013-02-19 12:05:00,47.2,29.0,30.00,WSW,255,9.0,14.0,49,0.00,,,0.00,Wunderground v.1.15,2013-02-19 18:05:00,
2013-02-19 12:10:00,47.0,28.8,30.00,WNW,290,10.0,16.0,49,0.00,,,0.00,Wunderground v.1.15,2013-02-19 18:10:00,
2013-02-19 12:15:00,46.8,28.6,30.00,WNW,295,12.0,16.0,49,0.00,,,0.00,Wunderground v.1.15,2013-02-19 18:15:00,
2013-02-19 12:20:00,46.8,28.6,30.00,West,279,12.0,16.0,49,0.00,,,0.00,Wunderground v.1.15,2013-02-19 18:20:00,
2013-02-19 12:25:00,47.2,29.0,30.00,NW,322,11.0,16.0,49,0.00,,,0.00,Wunderground v.1.15,2013-02-19 18:25:00,
2013-02-19 12:30:00,47.2,28.5,30.00,WSW,251,12.0,12.0,48,0.00,,,0.00,Wunderground v.1.15,2013-02-19 18:30:00,
2013-02-19 12:40:00,47.6,29.4,29.99,WNW,287,9.0,9.0,49,0.00,,,0.00,Wunderground v.1.15,2013-02-19 18:40:00,
2013-02-19 12:50:00,48.6,28.7,29.99,WNW,300,10.0,16.0,46,0.00,,,0.00,Wunderground v.1.15,2013-02-19 18:50:00,
2013-02-19 12:55:00,48.0,28.7,29.99,NW,318,11.0,19.0,47,0.00,,,0.00,Wunderground v.1.15,2013-02-19 18:55:00,
2013-02-19 13:00:00,48.0,28.7,29.99,WNW,295,11.0,11.0,47,0.00,,,0.00,Wunderground v.1.15,2013-02-19 19:00:00,
2013-02-19 13:05:00,48.5,29.2,29.99,WSW,248,10.0,19.0,47,0.00,,,0.00,Wunderground v.1.15,2013-02-19 19:05:00,
2013-02-19 13:15:00,48.7,28.8,29.99,WNW,293,13.0,18.0,46,0.00,,,0.00,Wunderground v.1.15,2013-02-19 19:15:00,
2013-02-19 13:20:00,48.9,29.0,29.99,NW,321,11.0,16.0,46,0.00,,,0.00,Wunderground v.1.15,2013-02-19 19:20:00,
2013-02-19 13:25:00,48.6,28.2,29.98,NW,315,10.0,16.0,45,0.00,,,0.00,Wunderground v.1.15,2013-02-19 19:25:00,
2013-02-19 13:30:00,49.0,29.6,29.98,WNW,282,10.0,16.0,47,0.00,,,0.00,Wunderground v.1.15,2013-02-19 19:30:00,
2013-02-19 13:35:00,49.1,28.7,29.98,WNW,303,10.0,16.0,45,0.00,,,0.00,Wunderground v.1.15,2013-02-19 19:35:00,
2013-02-19 13:45:00,49.5,29.6,29.98,WNW,302,10.0,14.0,46,0.00,,,0.00,Wunderground v.1.15,2013-02-19 19:45:00,
2013-02-19 13:55:00,49.0,27.5,29.99,WNW,286,13.0,18.0,43,0.00,,,0.00,Wunderground v.1.15,2013-02-19 19:55:00,
2013-02-19 14:00:00,49.1,28.1,29.99,WNW,288,14.0,14.0,44,0.00,,,0.00,Wunderground v.1.15,2013-02-19 20:00:00,
2013-02-19 14:05:00,49.2,28.2,29.99,NW,314,12.0,16.0,44,0.00,,,0.00,Wunderground v.1.15,2013-02-19 20:05:00,
2013-02-19 14:10:00,49.3,28.3,29.99,WSW,237,10.0,24.0,44,0.00,,,0.00,Wunderground v.1.15,2013-02-19 20:10:00,
2013-02-19 14:20:00,49.1,27.5,29.99,NNW,340,13.0,13.0,43,0.00,,,0.00,Wunderground v.1.15,2013-02-19 20:20:00,
2013-02-19 14:25:00,49.3,27.2,29.99,West,279,10.0,16.0,42,0.00,,,0.00,Wunderground v.1.15,2013-02-19 20:25:00,
2013-02-19 14:30:00,49.0,26.3,29.99,NW,307,12.0,16.0,41,0.00,,,0.00,Wunderground v.1.15,2013-02-19 20:30:00,
2013-02-19 14:40:00,49.5,27.3,29.98,SW,236,8.0,8.0,42,0.00,,,0.00,Wunderground v.1.15,2013-02-19 20:40:00,
2013-02-19 14:45:00,49.7,28.1,29.98,NW,304,10.0,10.0,43,0.00,,,0.00,Wunderground v.1.15,2013-02-19 20:45:00,
2013-02-19 14:50:00,49.7,28.6,29.98,North,355,10.0,10.0,44,0.00,,,0.00,Wunderground v.1.15,2013-02-19 20:50:00,
2013-02-19 14:55:00,49.8,28.7,29.99,West,265,10.0,16.0,44,0.00,,,0.00,Wunderground v.1.15,2013-02-19 20:55:00,
2013-02-19 15:00:00,49.7,28.1,29.99,WNW,286,12.0,12.0,43,0.00,,,0.00,Wunderground v.1.15,2013-02-19 21:00:00,
2013-02-19 15:05:00,49.3,27.7,29.99,WNW,301,12.0,16.0,43,0.00,,,0.00,Wunderground v.1.15,2013-02-19 21:05:00,
2013-02-19 15:10:00,49.2,27.6,29.99,West,280,11.0,16.0,43,0.00,,,0.00,Wunderground v.1.15,2013-02-19 21:10:00,
2013-02-19 15:15:00,49.0,28.0,29.99,WNW,302,11.0,16.0,44,0.00,,,0.00,Wunderground v.1.15,2013-02-19 21:15:00,
2013-02-19 15:20:00,49.1,28.7,29.99,West,264,11.0,11.0,45,0.00,,,0.00,Wunderground v.1.15,2013-02-19 21:20:00,
2013-02-19 15:30:00,49.5,27.9,29.99,West,266,8.0,16.0,43,0.00,,,0.00,Wunderground v.1.15,2013-02-19 21:30:00,
2013-02-19 15:40:00,49.5,27.9,29.99,WNW,286,10.0,16.0,43,0.00,,,0.00,Wunderground v.1.15,2013-02-19 21:40:00,
2013-02-19 15:45:00,49.4,28.4,29.99,WNW,286,9.0,16.0,44,0.00,,,0.00,Wunderground v.1.15,2013-02-19 21:45:00,
2013-02-19 15:50:00,49.6,28.0,29.99,West,279,9.0,9.0,43,0.00,,,0.00,Wunderground v.1.15,2013-02-19 21:50:00,
2013-02-19 15:55:00,49.4,27.8,30.00,WNW,303,10.0,14.0,43,0.00,,,0.00,Wunderground v.1.15,2013-02-19 21:55:00,
2013-02-19 16:05:00,49.1,28.1,30.00,WNW,291,9.0,16.0,44,0.00,,,0.00,Wunderground v.1.15,2013-02-19 22:05:00,
2013-02-19 16:10:00,49.0,28.0,29.99,WNW,284,8.0,16.0,44,0.00,,,0.00,Wunderground v.1.15,2013-02-19 22:10:00,
2013-02-19 16:15:00,48.9,28.5,29.99,WNW,298,8.0,16.0,45,0.00,,,0.00,Wunderground v.1.15,2013-02-19 22:15:00,
2013-02-19 16:20:00,49.0,28.6,29.99,NW,315,7.0,7.0,45,0.00,,,0.00,Wunderground v.1.15,2013-02-19 22:20:00,
2013-02-19 16:25:00,49.2,28.7,29.99,West,264,5.0,8.0,45,0.00,,,0.00,Wunderground v.1.15,2013-02-19 22:25:00,
2013-02-19 16:35:00,48.9,28.5,29.99,NW,313,7.0,16.0,45,0.00,,,0.00,Wunderground v.1.15,2013-02-19 22:35:00,
2013-02-19 16:45:00,49.0,28.0,29.99,WNW,295,6.0,16.0,44,0.00,,,0.00,Wunderground v.1.15,2013-02-19 22:45:00,
2013-02-19 16:50:00,48.8,28.4,29.99,NNW,340,7.0,7.0,45,0.00,,,0.00,Wunderground v.1.15,2013-02-19 22:50:00,
2013-02-19 16:55:00,48.7,27.7,29.98,WNW,303,8.0,11.0,44,0.00,,,0.00,Wunderground v.1.15,2013-02-19 22:55:00,
2013-02-19 17:00:00,48.6,27.6,29.98,West,281,9.0,16.0,44,0.00,,,0.00,Wunderground v.1.15,2013-02-19 23:00:00,
2013-02-19 17:10:00,48.5,27.6,29.98,NNW,333,6.0,6.0,44,0.00,,,0.00,Wunderground v.1.15,2013-02-19 23:10:00,
2013-02-19 17:15:00,48.5,27.0,29.98,NNW,336,3.0,16.0,43,0.00,,,0.00,Wunderground v.1.15,2013-02-19 23:15:00,
2013-02-19 17:20:00,48.2,26.2,29.98,WNW,292,6.0,16.0,42,0.00,,,0.00,Wunderground v.1.15,2013-02-19 23:20:00,
2013-02-19 17:25:00,47.9,25.3,29.97,West,271,8.0,16.0,41,0.00,,,0.00,Wunderground v.1.15,2013-02-19 23:25:00,
2013-02-19 17:35:00,47.4,25.4,29.97,NNW,337,5.0,16.0,42,0.00,,,0.00,Wunderground v.1.15,2013-02-19 23:35:00,
2013-02-19 17:45:00,46.9,25.5,29.97,NNW,331,6.0,16.0,43,0.00,,,0.00,Wunderground v.1.15,2013-02-19 23:45:00,
2013-02-19 17:50:00,46.7,25.4,29.97,WNW,292,4.0,16.0,43,0.00,,,0.00,Wunderground v.1.15,2013-02-19 23:50:00,
2013-02-19 17:55:00,46.5,25.2,29.97,NW,313,3.0,16.0,43,0.00,,,0.00,Wunderground v.1.15,2013-02-19 23:55:00,
2013-02-19 18:00:00,46.3,25.6,29.97,NW,304,1.0,16.0,44,0.00,,,0.00,Wunderground v.1.15,2013-02-20 00:00:00,
2013-02-19 18:05:00,46.1,25.4,29.97,NNW,329,1.0,16.0,44,0.00,,,0.00,Wunderground v.1.15,2013-02-20 00:05:00,
2013-02-19 18:10:00,46.0,25.8,29.98,NW,310,2.0,2.0,45,0.00,,,0.00,Wunderground v.1.15,2013-02-20 00:10:00,
2013-02-19 18:15:00,45.8,25.6,29.98,NW,314,1.0,16.0,45,0.00,,,0.00,Wunderground v.1.15,2013-02-20 00:15:00,
2013-02-19 18:20:00,45.5,25.4,29.98,NW,309,1.0,1.0,45,0.00,,,0.00,Wunderground v.1.15,2013-02-20 00:20:00,
2013-02-19 18:25:00,45.3,25.7,29.98,NW,309,1.0,16.0,46,0.00,,,0.00,Wunderground v.1.15,2013-02-20 00:25:00,
2013-02-19 18:30:00,45.2,25.6,29.98,NW,309,0.0,16.0,46,0.00,,,0.00,Wunderground v.1.15,2013-02-20 00:30:00,
2013-02-19 18:40:00,44.9,25.9,29.98,NW,309,0.0,16.0,47,0.00,,,0.00,Wunderground v.1.15,2013-02-20 00:40:00,
2013-02-19 18:45:00,44.7,25.7,29.98,NW,309,0.0,16.0,47,0.00,,,0.00,Wunderground v.1.15,2013-02-20 00:45:00,
2013-02-19 18:50:00,44.5,25.5,29.98,NW,309,0.0,16.0,47,0.00,,,0.00,Wunderground v.1.15,2013-02-20 00:50:00,
2013-02-19 18:55:00,44.3,25.8,29.98,NW,309,0.0,16.0,48,0.00,,,0.00,Wunderground v.1.15,2013-02-20 00:55:00,
2013-02-19 19:00:00,44.2,25.7,29.98,NW,309,0.0,16.0,48,0.00,,,0.00,Wunderground v.1.15,2013-02-20 01:00:00,
2013-02-19 19:05:00,44.1,25.6,29.98,NW,309,0.0,16.0,48,0.00,,,0.00,Wunderground v.1.15,2013-02-20 01:05:00,
2013-02-19 19:10:00,43.9,25.5,29.99,NW,309,0.0,16.0,48,0.00,,,0.00,Wunderground v.1.15,2013-02-20 01:10:00,
2013-02-19 19:15:00,43.7,26.3,29.99,NW,309,0.0,16.0,50,0.00,,,0.00,Wunderground v.1.15,2013-02-20 01:15:00,
2013-02-19 19:20:00,43.6,26.2,29.99,NW,309,0.0,16.0,50,0.00,,,0.00,Wunderground v.1.15,2013-02-20 01:20:00,
2013-02-19 19:25:00,43.4,26.0,29.99,NW,309,0.0,16.0,50,0.00,,,0.00,Wunderground v.1.15,2013-02-20 01:25:00,
2013-02-19 19:35:00,43.2,26.3,29.99,NW,309,0.0,16.0,51,0.00,,,0.00,Wunderground v.1.15,2013-02-20 01:35:00,
2013-02-19 19:40:00,42.9,26.5,30.00,NW,309,0.0,16.0,52,0.00,,,0.00,Wunderground v.1.15,2013-02-20 01:40:00,
2013-02-19 19:45:00,42.8,26.8,30.00,NW,309,0.0,16.0,53,0.00,,,0.00,Wunderground v.1.15,2013-02-20 01:45:00,
2013-02-19 19:50:00,42.6,26.6,30.00,NW,309,0.0,16.0,53,0.00,,,0.00,Wunderground v.1.15,2013-02-20 01:50:00,
2013-02-19 19:55:00,42.6,27.1,30.00,NW,309,0.0,16.0,54,0.00,,,0.00,Wunderground v.1.15,2013-02-20 01:55:00,
2013-02-19 20:00:00,42.6,27.1,30.00,NW,309,0.0,16.0,54,0.00,,,0.00,Wunderground v.1.15,2013-02-20 02:00:00,
2013-02-19 20:05:00,42.5,27.0,30.00,NW,309,0.0,16.0,54,0.00,,,0.00,Wunderground v.1.15,2013-02-20 02:05:00,
2013-02-19 20:10:00,42.6,26.6,30.00,NW,309,0.0,16.0,53,0.00,,,0.00,Wunderground v.1.15,2013-02-20 02:10:00,
2013-02-19 20:15:00,42.7,26.7,30.00,NW,309,0.0,16.0,53,0.00,,,0.00,Wunderground v.1.15,2013-02-20 02:15:00,
2013-02-19 20:25:00,42.7,26.7,30.00,NW,309,0.0,16.0,53,0.00,,,0.00,Wunderground v.1.15,2013-02-20 02:25:00,
2013-02-19 20:35:00,42.7,26.7,30.00,NW,309,0.0,16.0,53,0.00,,,0.00,Wunderground v.1.15,2013-02-20 02:35:00,
2013-02-19 20:40:00,42.6,26.6,30.00,NW,309,0.0,16.0,53,0.00,,,0.00,Wunderground v.1.15,2013-02-20 02:40:00,
2013-02-19 20:45:00,42.5,26.6,30.00,NW,309,0.0,16.0,53,0.00,,,0.00,Wunderground v.1.15,2013-02-20 02:45:00,
2013-02-19 20:50:00,42.3,26.8,30.00,NW,309,0.0,16.0,54,0.00,,,0.00,Wunderground v.1.15,2013-02-20 02:50:00,
2013-02-19 20:55:00,42.2,26.7,30.00,NW,309,0.0,16.0,54,0.00,,,0.00,Wunderground v.1.15,2013-02-20 02:55:00,
2013-02-19 21:00:00,42.0,27.0,30.00,NW,309,0.0,16.0,55,0.00,,,0.00,Wunderground v.1.15,2013-02-20 03:00:00,
2013-02-19 21:10:00,41.7,27.1,30.01,NW,309,0.0,16.0,56,0.00,,,0.00,Wunderground v.1.15,2013-02-20 03:10:00,
2013-02-19 21:15:00,41.6,27.1,30.01,NW,309,0.0,16.0,56,0.00,,,0.00,Wunderground v.1.15,2013-02-20 03:15:00,
2013-02-19 21:20:00,41.3,26.8,30.01,NW,309,0.0,16.0,56,0.00,,,0.00,Wunderground v.1.15,2013-02-20 03:20:00,
2013-02-19 21:30:00,41.1,27.4,30.01,NW,309,0.0,16.0,58,0.00,,,0.00,Wunderground v.1.15,2013-02-20 03:30:00,
2013-02-19 21:35:00,41.0,27.3,30.01,NW,309,0.0,16.0,58,0.00,,,0.00,Wunderground v.1.15,2013-02-20 03:35:00,
2013-02-19 21:40:00,40.9,27.2,30.01,NW,309,0.0,16.0,58,0.00,,,0.00,Wunderground v.1.15,2013-02-20 03:40:00,
2013-02-19 21:45:00,40.5,26.9,30.01,NW,309,0.0,16.0,58,0.00,,,0.00,Wunderground v.1.15,2013-02-20 03:45:00,
2013-02-19 21:50:00,40.3,27.1,30.01,NW,309,0.0,16.0,59,0.00,,,0.00,Wunderground v.1.15,2013-02-20 03:50:00,
2013-02-19 21:55:00,40.2,27.0,30.02,NW,309,0.0,16.0,59,0.00,,,0.00,Wunderground v.1.15,2013-02-20 03:55:00,
2013-02-19 22:00:00,40.2,27.0,30.02,NW,309,0.0,16.0,59,0.00,,,0.00,Wunderground v.1.15,2013-02-20 04:00:00,
2013-02-19 22:05:00,40.2,26.6,30.02,NW,309,0.0,16.0,58,0.00,,,0.00,Wunderground v.1.15,2013-02-20 04:05:00,
2013-02-19 22:15:00,40.3,26.3,30.01,NW,309,0.0,16.0,57,0.00,,,0.00,Wunderground v.1.15,2013-02-20 04:15:00,
2013-02-19 22:20:00,40.4,25.9,30.01,NW,309,0.0,16.0,56,0.00,,,0.00,Wunderground v.1.15,2013-02-20 04:20:00,
2013-02-19 22:25:00,40.5,25.6,30.01,NW,309,0.0,16.0,55,0.00,,,0.00,Wunderground v.1.15,2013-02-20 04:25:00,
2013-02-19 22:30:00,40.5,25.6,30.01,NNW,327,1.0,1.0,55,0.00,,,0.00,Wunderground v.1.15,2013-02-20 04:30:00,
2013-02-19 22:35:00,40.5,25.6,30.01,NW,326,1.0,16.0,55,0.00,,,0.00,Wunderground v.1.15,2013-02-20 04:35:00,
2013-02-19 22:40:00,40.3,25.0,30.01,NW,326,1.0,1.0,54,0.00,,,0.00,Wunderground v.1.15,2013-02-20 04:40:00,
2013-02-19 22:45:00,40.1,24.8,30.01,NNW,331,1.0,5.0,54,0.00,,,0.00,Wunderground v.1.15,2013-02-20 04:45:00,
2013-02-19 22:50:00,40.1,24.3,30.01,NNW,338,2.0,16.0,53,0.00,,,0.00,Wunderground v.1.15,2013-02-20 04:50:00,
2013-02-19 22:55:00,40.2,24.0,30.01,NNW,342,2.0,16.0,52,0.00,,,0.00,Wunderground v.1.15,2013-02-20 04:55:00,
2013-02-19 23:00:00,40.1,23.4,30.01,NW,325,1.0,16.0,51,0.00,,,0.00,Wunderground v.1.15,2013-02-20 05:00:00,
2013-02-19 23:05:00,40.0,23.3,30.01,North,11,2.0,16.0,51,0.00,,,0.00,Wunderground v.1.15,2013-02-20 05:05:00,
2013-02-19 23:10:00,40.0,22.8,30.01,North,355,2.0,2.0,50,0.00,,,0.00,Wunderground v.1.15,2013-02-20 05:10:00,
2013-02-19 23:20:00,39.9,22.3,30.01,North,355,1.0,16.0,49,0.00,,,0.00,Wunderground v.1.15,2013-02-20 05:20:00,
2013-02-19 23:25:00,39.7,22.1,30.03,North,355,1.0,16.0,49,0.00,,,0.00,Wunderground v.1.15,2013-02-20 05:25:00,
2013-02-19 23:30:00,39.7,21.6,30.03,NNW,336,2.0,2.0,48,0.00,,,0.00,Wunderground v.1.15,2013-02-20 05:30:00,
2013-02-19 23:35:00,39.7,21.6,30.03,North,11,1.0,16.0,48,0.00,,,0.00,Wunderground v.1.15,2013-02-20 05:35:00,
2013-02-19 23:40:00,39.7,21.6,30.03,North,11,1.0,16.0,48,0.00,,,0.00,Wunderground v.1.15,2013-02-20 05:40:00,
2013-02-19 23:45:00,39.7,21.1,30.03,NNW,345,1.0,16.0,47,0.00,,,0.00,Wunderground v.1.15,2013-02-20 05:45:00,
2013-02-19 23:50:00,39.7,21.1,30.03,North,355,2.0,16.0,47,0.00,,,0.00,Wunderground v.1.15,2013-02-20 05:50:00,